#timestamp,LO_Frequency,Hit,StdDev 
1551834015.5,286046998.7,N
1551834035.4,286046998.3,N
1551834055.2,286047002.3,N
1551834075.0,286046998.3,N
1551834076.0,286046998.3,N
1551834095.8,286046999.3,N
1551834115.6,286046997.2,N
1551834135.5,286046997.0,N
1551834155.3,286047000.8,N
1551834175.1,286046998.1,N
1551834195.9,286046998.7,N
1551834215.7,286046998.2,N
1551834235.5,286047000.7,N
1551834255.4,286046999.1,N
1551834275.2,286046999.1,N
1551834295.1,286046999.0,N
1551834296.0,286046999.0,N
1551834315.8,286046999.5,N
1551834335.6,286047000.4,N
1551834355.5,286047002.7,N
1551834375.3,286047004.2,N
1551834395.2,286047004.3,N
1551834415.9,286047001.6,N
1551834435.7,286046999.7,N
1551834455.6,286046999.8,N
1551834475.4,286046999.7,N
1551834495.2,286047001.2,N
1551834515.1,286046999.0,N
1551834516.0,286046999.0,N
1551834535.8,286046999.2,N
1551834555.7,286047001.2,N
1551834575.5,286046999.2,N
1551834595.3,286046999.5,N
1551834615.2,286046997.2,N
1551834635.0,286046996.5,N
1551834635.9,286046996.5,N
1551834655.7,286046999.5,N
1551834675.6,286046999.2,N
1551834695.4,286046998.5,N
1551834715.3,286047000.9,N
1551834735.1,286046998.5,N
1551834736.0,286046998.5,N
1551834755.8,286046998.5,N
1551834775.7,286046999.4,N
1551834795.5,286046997.5,N
1551834815.4,286046997.5,N
1551834835.2,286046995.3,N
1551834855.0,286046995.7,N
1551834855.9,286046995.7,N
1551834875.8,286046995.7,N
1551834895.6,286046997.2,N
1551834915.5,286046997.4,N
1551834935.3,286047001.0,N
1551834955.1,286047000.5,N
1551834975.9,286047002.7,N
1551834995.7,286046999.8,N
1551835015.5,286047002.7,N
1551835035.4,286047002.2,N
1551835055.2,286047002.0,N
1551835075.0,286047002.4,N
1551835076.0,286047002.4,N
1551835095.8,286047000.7,N
1551835115.6,286046999.5,N
1551835135.5,286046998.5,N
1551835155.3,286046998.3,N
1551835175.2,286046998.9,N
1551835195.9,286046998.0,N
1551835215.7,286046997.9,N
1551835235.6,286046997.2,N
1551835255.4,286046997.6,N
1551835275.2,286046997.4,N
1551835295.1,286046997.8,N
1551835296.0,286046997.8,N
1551835315.8,286046995.5,N
1551835335.7,286046994.9,N
1551835355.5,286046994.9,N
1551835375.4,286046996.8,N
1551835395.2,286046995.9,N
1551835415.0,286046995.8,N
1551835415.9,286046995.8,N
1551835435.8,286046997.3,N
1551835455.6,286046997.4,N
1551835475.4,286046999.4,N
1551835495.3,286046998.6,N
1551835515.1,286047000.6,N
1551835537.8,286047000.0,N
1551835555.8,286047000.1,N
1551835575.7,286046998.6,N
1551835595.5,286047002.0,N
1551835615.3,286047000.0,N
1551835635.2,286046997.6,N
1551835655.0,286046996.3,N
1551835655.9,286046996.3,N
1551835675.8,286046994.0,Y
1551835695.6,286046997.6,P
1551835715.4,286046996.5,P
1551835735.3,286046997.0,P
1551835755.1,286046995.0,Y
1551835775.9,286047001.1,P
1551835795.7,286047001.0,N
1551835815.5,286047001.3,N
1551835835.4,286047005.7,Y
1551835855.2,286047003.3,P
1551835875.1,286047005.6,P
1551835876.0,286047005.6,N
1551835895.8,286047003.6,N
1551835915.6,286047003.7,N
1551835935.5,286047004.4,N
1551835955.3,286047002.1,N
1551835975.2,286047004.2,N
1551835995.9,286047004.1,N
1551836015.7,286047002.9,N
1551836035.6,286047006.3,Y
1551836055.4,286047004.4,P
1551836075.2,286047002.7,P
1551836095.1,286047002.4,P
1551836096.0,286047002.4,Y
1551836115.8,286046995.4,P
1551836135.7,286046997.9,N
1551836155.5,286046994.1,N
1551836175.3,286046994.4,N
1551836195.2,286046994.0,N
1551836215.0,286046995.1,N
1551836215.9,286046995.1,N
1551836235.8,286046999.0,N
1551836255.6,286046997.2,N
1551836275.4,286046996.0,N
1551836295.3,286046996.1,N
1551836315.1,286046995.2,N
1551836316.0,286046995.2,N
1551836335.8,286046993.7,N
1551836355.7,286046994.8,N
1551836375.5,286046993.6,N
1551836395.3,286046995.8,N
1551836415.2,286046996.4,N
1551836435.0,286046994.1,N
1551836435.9,286046994.1,N
1551836455.8,286046992.1,Y
1551836475.6,286046994.9,P
1551836495.5,286046997.3,P
1551836515.3,286046998.3,N
1551836535.1,286047001.0,N
1551836555.9,286047002.0,N
1551836575.7,286047001.5,N
1551836595.5,286047003.6,N
1551836615.4,286047005.3,N
1551836635.2,286047005.7,N
1551836655.1,286047001.8,N
1551836656.0,286047001.8,N
1551836675.8,286047003.4,N
1551836695.6,286047003.3,N
1551836715.5,286047004.3,N
1551836735.3,286047003.3,N
1551836755.2,286047003.4,N
1551836775.9,286047001.7,N
1551836795.7,286047000.9,N
1551836815.6,286047001.2,N
1551836835.4,286047000.3,N
1551836855.2,286047000.7,N
1551836875.1,286046996.8,N
1551836876.0,286046996.8,N
1551836895.8,286046999.4,N
1551836915.7,286046999.3,N
1551836935.5,286046998.3,N
1551836955.3,286047000.3,N
1551836975.2,286047000.3,N
1551836995.0,286047006.0,N
1551836995.9,286047006.0,N
1551837015.7,286047011.9,Y
1551837035.6,286047001.5,P
1551837055.4,286047001.4,P
1551837075.3,286047003.4,P
1551837095.1,286047006.0,Y
1551837115.8,286047002.9,P
1551837135.7,286047001.6,P
1551837155.5,286047001.6,N
1551837175.4,286047001.6,N
1551837195.2,286047002.3,Y
1551837215.0,286046999.2,P
1551837215.9,286046999.2,N
1551837235.8,286046997.8,N
1551837255.6,286046995.6,N
1551837275.5,286046997.6,N
1551837295.3,286046995.2,N
1551837315.1,286046997.6,N
1551837335.9,286046999.2,N
1551837355.7,286046999.0,N
1551837375.5,286046997.4,N
1551837395.4,286046995.1,N
1551837415.2,286046995.8,N
1551837435.1,286046993.8,Y
1551837436.0,286046993.8,P
1551837455.8,286046997.8,N
1551837475.6,286046997.1,N
1551837495.5,286046995.0,Y
1551837515.3,286046998.2,P
1551837535.1,286046998.4,N
1551837555.9,286047000.5,N
1551837575.7,286047001.8,N
1551837595.6,286047005.0,N
